Escanaba, MI

12:48 PM EDT on August 18, 2017 (GMT -0400)
Delta County

Weather History for KESC - December, 2014

Change the Weather History Date:

Tuesday, December 9, 2014

  Actual Average Record
Temperature  
Mean Temperature 30 °F -  
Max Temperature 33 °F 31 °F 52 °F (1990)
Min Temperature 26 °F 19 °F -5 °F (1958)
Degree Days  
Heating Degree Days 36    
Moisture  
Dew Point 23 °F    
Average Humidity 77    
Maximum Humidity 87    
Minimum Humidity 69    
Precipitation  
Precipitation 0.00 in - - ()
Sea Level Pressure  
Sea Level Pressure 30.32 in    
Wind  
Wind Speed 9 mph (NNW)    
Max Wind Speed 16 mph    
Max Gust Speed 25 mph    
Visibility 9 miles    
Events      
Averages and records for this station are not official NWS values.
T = Trace of Precipitation, MM = Missing Value Source: NWS Daily Summary

Daily Weather History Graph

Daily Weather History Graph

Search for Another Location

Airport or City:

Trip Planner

Search our weather history database for the weather conditions in past years. The results will help you decide how hot, cold, wet, or windy it might be!

Date:

Astronomy

Dec. 09, 2014 Rise Set
Actual Time 8:17 AM EST 5:04 PM EST
Civil Twilight 7:43 AM EST 5:38 PM EST
Nautical Twilight 7:05 AM EST 6:15 PM EST
Astronomical Twilight 6:29 AM EST 6:51 PM EST
Moon 8:28 PM EST (12/9) 10:24 AM EST (12/9)
Length of Visible Light 9h 55m
Length of Day
8h 46m
Waning Gibbous, 90% of the Moon is Illuminated
Dec 9
Waning Gibbous
Dec 14
Last Quarter
Dec 21
New
Dec 28
First Quarter
Jan 4
Full

Hourly Weather History & Observations

Time (EST) Temp. Windchill Dew Point Humidity Pressure Visibility Wind Dir Wind Speed Gust Speed Precip Events Conditions
12:15 AM 33.8 °F 29.6 °F 30.2 °F 87% 30.08 in 4.0 mi NW 4.6 mph - N/A   Overcast
12:35 AM 33.8 °F 29.6 °F 30.2 °F 87% 30.08 in 4.0 mi NW 4.6 mph - N/A   Overcast
12:55 AM 33.8 °F 28.6 °F 30.2 °F 87% 30.08 in 5.0 mi WNW 5.8 mph - N/A   Overcast
1:15 AM 33.8 °F 28.6 °F 30.2 °F 87% 30.09 in 6.0 mi NW 5.8 mph - N/A   Overcast
1:35 AM 33.8 °F 27.7 °F 30.2 °F 87% 30.10 in 7.0 mi NW 6.9 mph - N/A   Overcast
1:55 AM 33.8 °F 27.7 °F 30.2 °F 87% 30.11 in 9.0 mi NW 6.9 mph - N/A   Overcast
2:15 AM 33.8 °F 28.6 °F 30.2 °F 87% 30.11 in 9.0 mi NNW 5.8 mph - N/A   Overcast
2:35 AM 33.8 °F 26.4 °F 30.2 °F 87% 30.12 in 9.0 mi NNW 9.2 mph - N/A   Overcast
2:55 AM 33.8 °F 26.4 °F 30.2 °F 87% 30.14 in 9.0 mi North 9.2 mph - N/A   Overcast
3:15 AM 33.8 °F 27.0 °F 30.2 °F 87% 30.15 in 10.0 mi NNW 8.1 mph - N/A   Overcast
3:35 AM 33.8 °F 24.3 °F 28.4 °F 81% 30.15 in 10.0 mi NNW 13.8 mph - N/A   Overcast
3:55 AM 33.8 °F 24.3 °F 28.4 °F 81% 30.15 in 10.0 mi NNW 13.8 mph 19.6 mph N/A   Scattered Clouds
4:15 AM 33.8 °F 25.3 °F 28.4 °F 81% 30.17 in 10.0 mi NNW 11.5 mph 19.6 mph N/A   Mostly Cloudy
4:35 AM 33.8 °F 24.3 °F 26.6 °F 75% 30.18 in 10.0 mi NNW 13.8 mph 19.6 mph N/A   Overcast
4:55 AM 32.0 °F 22.5 °F 26.6 °F 80% 30.19 in 10.0 mi NNW 12.7 mph 16.1 mph N/A   Overcast
5:15 AM 32.0 °F 22.5 °F 26.6 °F 80% 30.20 in 10.0 mi NNW 12.7 mph 20.7 mph N/A   Overcast
5:35 AM 32.0 °F 22.5 °F 26.6 °F 80% 30.21 in 10.0 mi NNW 12.7 mph 19.6 mph N/A   Overcast
5:55 AM 30.2 °F 21.3 °F 26.6 °F 86% 30.23 in 9.0 mi NNW 10.4 mph 18.4 mph N/A   Overcast
6:15 AM 30.2 °F 20.2 °F 26.6 °F 86% 30.24 in 9.0 mi North 12.7 mph 21.9 mph N/A   Overcast
6:35 AM 30.2 °F 19.3 °F 26.6 °F 86% 30.25 in 9.0 mi NNW 15.0 mph 25.3 mph N/A   Overcast
6:55 AM 30.2 °F 20.2 °F 26.6 °F 86% 30.26 in 5.0 mi NNW 12.7 mph 18.4 mph N/A   Overcast
7:15 AM 30.2 °F 20.8 °F 24.8 °F 80% 30.28 in 2.5 mi NNW 11.5 mph 20.7 mph N/A   Overcast
7:35 AM 28.4 °F 18.0 °F 24.8 °F 86% 30.28 in 7.0 mi North 12.7 mph 21.9 mph N/A   Overcast
7:55 AM 28.4 °F 18.0 °F 24.8 °F 86% 30.29 in 10.0 mi North 12.7 mph 21.9 mph N/A   Overcast
8:15 AM 28.4 °F 16.6 °F 23.0 °F 80% 30.30 in 10.0 mi NNW 16.1 mph 23.0 mph N/A   Overcast
8:35 AM 28.4 °F 18.5 °F 23.0 °F 80% 30.31 in 10.0 mi NNW 11.5 mph 18.4 mph N/A   Overcast
8:55 AM 28.4 °F 18.5 °F 21.2 °F 74% 30.31 in 10.0 mi NNW 11.5 mph 23.0 mph N/A   Overcast
9:15 AM 28.4 °F 17.5 °F 21.2 °F 74% 30.33 in 10.0 mi North 13.8 mph 20.7 mph N/A   Overcast
9:35 AM 28.4 °F 19.1 °F 21.2 °F 74% 30.33 in 10.0 mi NNW 10.4 mph 20.7 mph N/A   Overcast
9:55 AM 28.4 °F 18.0 °F 21.2 °F 74% 30.34 in 10.0 mi North 12.7 mph 19.6 mph N/A   Overcast
10:15 AM 28.4 °F 18.5 °F 21.2 °F 74% 30.35 in 10.0 mi North 11.5 mph 24.2 mph N/A   Overcast
10:35 AM 28.4 °F 17.0 °F 21.2 °F 74% 30.36 in 10.0 mi NNW 15.0 mph 18.4 mph N/A   Overcast
10:55 AM 28.4 °F 18.0 °F 21.2 °F 74% 30.36 in 10.0 mi North 12.7 mph 24.2 mph N/A   Overcast
11:15 AM 28.4 °F 18.0 °F 21.2 °F 74% 30.37 in 10.0 mi North 12.7 mph 24.2 mph N/A   Overcast
11:35 AM 28.4 °F 17.5 °F 21.2 °F 74% 30.37 in 10.0 mi North 13.8 mph 25.3 mph N/A   Overcast
11:55 AM 28.4 °F 18.0 °F 21.2 °F 74% 30.37 in 10.0 mi NNW 12.7 mph 18.4 mph N/A   Overcast
12:15 PM 28.4 °F 17.5 °F 21.2 °F 74% 30.37 in 10.0 mi NNW 13.8 mph 19.6 mph N/A   Overcast
12:35 PM 28.4 °F 19.1 °F 21.2 °F 74% 30.37 in 10.0 mi NNW 10.4 mph 20.7 mph N/A   Overcast
12:55 PM 28.4 °F 18.5 °F 19.4 °F 69% 30.37 in 10.0 mi NNW 11.5 mph 20.7 mph N/A   Overcast
1:15 PM 28.4 °F 18.0 °F 21.2 °F 74% 30.37 in 10.0 mi North 12.7 mph 21.9 mph N/A   Overcast
1:35 PM 28.4 °F 17.5 °F 21.2 °F 74% 30.37 in 10.0 mi North 13.8 mph 20.7 mph N/A   Overcast
1:55 PM 28.4 °F 21.2 °F 21.2 °F 74% 30.37 in 10.0 mi North 6.9 mph 16.1 mph N/A   Overcast
2:15 PM 28.4 °F 19.1 °F 21.2 °F 74% 30.37 in 10.0 mi NNW 10.4 mph 19.6 mph N/A   Overcast
2:35 PM 28.4 °F 19.1 °F 21.2 °F 74% 30.37 in 10.0 mi NNW 10.4 mph - N/A   Overcast
2:55 PM 28.4 °F 17.5 °F 21.2 °F 74% 30.38 in 10.0 mi NNW 13.8 mph 17.3 mph N/A   Overcast
3:15 PM 28.4 °F 18.5 °F 19.4 °F 69% 30.38 in 10.0 mi NNW 11.5 mph 16.1 mph N/A   Overcast
3:35 PM 28.4 °F 18.5 °F 19.4 °F 69% 30.39 in 10.0 mi NNW 11.5 mph 17.3 mph N/A   Overcast
3:55 PM 28.4 °F 18.5 °F 19.4 °F 69% 30.39 in 10.0 mi NNW 11.5 mph 18.4 mph N/A   Overcast
4:15 PM 26.6 °F 18.2 °F 19.4 °F 74% 30.40 in 10.0 mi North 8.1 mph 17.3 mph N/A   Overcast
4:35 PM 26.6 °F 18.2 °F 19.4 °F 74% 30.40 in 10.0 mi North 8.1 mph - N/A   Overcast
4:55 PM 26.6 °F 19.1 °F 19.4 °F 74% 30.40 in 10.0 mi North 6.9 mph - N/A   Overcast
5:15 PM 26.6 °F 16.2 °F 19.4 °F 74% 30.40 in 10.0 mi North 11.5 mph - N/A   Overcast
5:35 PM 26.6 °F 17.5 °F 19.4 °F 74% 30.40 in 10.0 mi NNW 9.2 mph 16.1 mph N/A   Overcast
5:55 PM 26.6 °F 18.2 °F 19.4 °F 74% 30.41 in 10.0 mi North 8.1 mph - N/A   Overcast
6:15 PM 26.6 °F 17.5 °F 19.4 °F 74% 30.41 in 10.0 mi North 9.2 mph 18.4 mph N/A   Overcast
6:35 PM 26.6 °F 18.2 °F 19.4 °F 74% 30.42 in 10.0 mi North 8.1 mph - N/A   Overcast
6:55 PM 26.6 °F 18.2 °F 19.4 °F 74% 30.42 in 10.0 mi North 8.1 mph - N/A   Overcast
7:15 PM 26.6 °F 16.2 °F 19.4 °F 74% 30.43 in 10.0 mi North 11.5 mph 16.1 mph N/A   Overcast
7:35 PM 26.6 °F 18.2 °F 19.4 °F 74% 30.43 in 10.0 mi North 8.1 mph - N/A   Overcast
7:55 PM 26.6 °F 20.0 °F 19.4 °F 74% 30.43 in 10.0 mi North 5.8 mph - N/A   Overcast
8:15 PM 26.6 °F 18.2 °F 19.4 °F 74% 30.44 in 10.0 mi North 8.1 mph - N/A   Overcast
8:35 PM 26.6 °F 19.1 °F 19.4 °F 74% 30.43 in 10.0 mi North 6.9 mph - N/A   Overcast
8:55 PM 26.6 °F 18.2 °F 19.4 °F 74% 30.44 in 10.0 mi North 8.1 mph - N/A   Overcast
9:15 PM 26.6 °F 19.1 °F 19.4 °F 74% 30.44 in 10.0 mi NNW 6.9 mph - N/A   Overcast
9:35 PM 26.6 °F 20.0 °F 19.4 °F 74% 30.44 in 10.0 mi North 5.8 mph - N/A   Overcast
9:55 PM 26.6 °F 19.1 °F 19.4 °F 74% 30.44 in 10.0 mi NNW 6.9 mph - N/A   Overcast
10:15 PM 26.6 °F 21.2 °F 19.4 °F 74% 30.44 in 10.0 mi North 4.6 mph - N/A   Overcast
10:35 PM 26.6 °F 20.0 °F 19.4 °F 74% 30.43 in 10.0 mi North 5.8 mph - N/A   Overcast
10:55 PM 26.6 °F 19.1 °F 19.4 °F 74% 30.43 in 10.0 mi North 6.9 mph - N/A   Overcast
11:15 PM 26.6 °F 22.6 °F 19.4 °F 74% 30.43 in 10.0 mi North 3.5 mph - N/A   Overcast
11:35 PM 26.6 °F 19.1 °F 19.4 °F 74% 30.43 in 10.0 mi North 6.9 mph - N/A   Overcast
11:55 PM 26.6 °F 21.2 °F 19.4 °F 74% 30.43 in 10.0 mi NNE 4.6 mph - N/A   Overcast